Regional Weather Roundup
Issued by NWS Newport/Morehead, NC

Current Version | Previous Version | Text Only | Print | Product List | Glossary Off
Versions: 1 2 3 4 5 6 7 8 9 10 11 12 13 14 15 16 17 18 19 20 21 22 23 24 25 26 27 28 29 30 31 32 33 34 35 36 37 38 39 40 41 42 43 44 45 46 47 48 49 50
000 ASUS42 KMHX 210922 RWRMHX WEATHER ROUNDUP FOR EASTERN NORTH CAROLINA NATIONAL WEATHER SERVICE NEWPORT/MOREHEAD CITY NC 400 AM EST SUN DEC 21 2014 NOTE: "FAIR" INDICATES FEW OR NO CLOUDS BELOW 12,000 FEET WITH NO SIGNIFICANT WEATHER AND/OR OBSTRUCTIONS TO VISIBILITY NCZ015>017-031-032-045>047-102-103-211000- NORTH COAST CITY SKY/WX TMP DP RH WIND PRES REMARKS EDENTON N/A 32 29 91 NE5 30.28F ELIZABETH CITY CLEAR 37 30 75 N5 30.29S KITTY HAWK SUNNY 40 34 78 N5 30.25F MANTEO CLEAR 37 34 87 N5 30.27S $$ NCZ045>047-081-094-103-104-211000- CENTRAL COAST CITY SKY/WX TMP DP RH WIND PRES REMARKS FRISCO CLEAR 43 37 79 NE8G16 30.24F SWANQUARTER N/A 36 N/A N/A N6 30.21F $$ NCZ095-097-098-100-101-211000- SOUTHERN COAST CITY SKY/WX TMP DP RH WIND PRES REMARKS BEAUFORT PTCLDY 40 37 89 NE8 30.24F CEDAR ISLAND N/A 43 N/A N/A N15 30.27F JACKSONVILLE CLEAR 35 33 92 N6 30.24F PINEY ISLAND SUNNY 43 36 76 N9 30.25S WILMINGTON CLOUDY 38 35 89 N8 30.23S $$ NCZ011>013-027>030-043-044-078>080-089-090>093-098-211000- COASTAL PLAIN CITY SKY/WX TMP DP RH WIND PRES REMARKS AHOSKIE CLOUDY 29 28 94 CALM 30.29F CLINTON CLOUDY 37 37 99 CALM 30.27S ELIZABETHTOWN MOCLDY 35 35 100 CALM 30.25S FOG GOLDSBORO CLEAR 33 33 98 CALM 30.25F GREENVILLE CLEAR 32 30 93 CALM 30.28F HAVELOCK MOCLDY 38 33 82 NE10 30.26S KENANSVILLE MOCLDY 32 32 100 N3 30.27S FOG KINSTON CLEAR 33 32 97 N3 30.27F NEW BERN CLEAR 37 32 82 NE5 30.27F RICHLANDS CLEAR 34 28 80 N3 30.26S ROCKY MOUNT CLEAR 33 31 92 NE3 30.28F WASHINGTON CLEAR 33 31 93 NE3 30.27F WHITEVILLE CLOUDY 39 35 86 NE5 30.23F $$ AMZ130-135-150-152-154-156-158-170-250-252-270-ANZ085-086-088-633-658-670-211000- MARINE OBSERVATIONS STATION/POSITION TIME TEMP WIND PRES WAVE SWELL AIR SEA DIR/SP/G HT/PER HT/PER (UTC) (F) (DEG/KT/KT) (MB) (FT/S) (FT/S) CHESAPEAKE LIGHT 0900 39 360/ 11/ 12 1026.1 64 E VA BEACH 0900 43 54 350/ 12/ 14 1024.3 2/10 2/10 DUCK 0900 42 46 10/ 12/ 13 1024.0 2 E DUCK 0900 46 N/A 2/ 5 10 NE DUCK 0900 51 N/A 2/ 5 OREGON INLET 0900 42 49 350/ 7/ 10 1024.7 13E OREGON INLT 0900 52 N/A 3/ 4 HATTERAS CG 0900 45 49 10/ 15/ 18 1024.2 DIAMOND BUOY 0900 49 1023.7 3/ 5 17 S OCRACOKE NOT AVBL CAPE LOOKOUT 0900 42 20/ 11/ 13 1023.6 BEAUFORT LAB 0900 41 50 20/ 8/ 11 1022.9 30 SE NEW RIVER 0900 50 61 40/ 19/ 21 1022.7 4/ 5 2/10 5 SE WRIGHTSVLE NOT AVBL 225 S CAPE HAT 0845 66 71 70/ 19/ 21 1019.6 6/ 6 2/10 41 SE CHARLESTON 0900 61 70 20/ 19/ 25 1019.9 6/ 8 2/ 8 $$

USA.gov is the U.S. government's official web portal to all federal, state and local government web resources and services.